AJ1L Weather Reports


Display with metric or nautical units.
time (UTC)temp
F
wind
direction
speed
MPH
gust
MPH
rain 1hr
in
rain 24hr
in
rain mn
in
humidity
%
barometer
mb
20260507065721 56 272 1.0 7.0 0.00 0.06 0.00 95 1005.8
20260507064038 56 289 1.0 4.0 0.00 0.06 0.00 95 1005.6
20260507062358 56 240 0.0 1.0 0.00 0.06 0.00 95 1005.6
20260507060719 56 258 2.0 5.0 0.00 0.06 0.00 95 1005.9
20260507055039 56 272 1.0 3.0 0.00 0.06 0.00 95 1006.0
20260507053359 56 281 1.0 4.0 0.00 0.06 0.00 95 1006.3
20260507051720 56 247 1.0 3.0 0.00 0.06 0.00 95 1006.2
20260507050039 56 242 1.0 4.0 0.00 0.06 0.00 95 1006.3
20260507044358 56 248 1.0 3.0 0.00 0.06 0.00 95 1006.4
20260507041038 56 262 1.0 3.0 0.00 0.06 0.00 95 1006.3
20260507035359 56 242 2.0 5.0 0.00 0.06 0.06 95 1006.4
20260507033718 56 251 3.0 8.0 0.00 0.06 0.06 95 1006.7
20260507032038 55 242 3.0 6.0 0.00 0.06 0.06 95 1006.4
20260507030359 55 239 4.0 8.0 0.00 0.06 0.06 95 1006.2
20260507024718 55 244 3.0 8.0 0.00 0.06 0.06 95 1006.2
20260507021358 55 211 3.0 7.0 0.00 0.06 0.06 94 1006.1
20260507015718 56 223 2.0 7.0 0.00 0.06 0.06 94 1006.6
20260507014038 56 230 3.0 8.0 0.00 0.06 0.06 94 1006.7
20260507012358 56 225 3.0 9.0 0.00 0.06 0.06 94 1006.8
20260507010718 56 241 4.0 9.0 0.00 0.06 0.06 94 1006.9
20260507005041 56 247 3.0 9.0 0.01 0.06 0.06 94 1006.9
20260507003359 56 243 4.0 11.0 0.02 0.06 0.06 94 1006.9
20260507001718 56 225 4.0 10.0 0.02 0.06 0.06 94 1006.7
20260507000038 56 235 4.0 12.0 0.01 0.05 0.05 94 1006.6
20260506231038 56 234 3.0 12.0 0.02 0.04 0.04 93 1007.0
20260506225358 56 209 3.0 8.0 0.02 0.04 0.04 92 1006.7
20260506223720 57 214 3.0 9.0 0.02 0.04 0.04 92 1006.8
20260506222041 57 209 3.0 9.0 0.01 0.03 0.03 91 1007.2
20260506214720 58 232 4.0 12.0 0.00 0.02 0.02 90 1007.4
20260506211359 58 229 3.0 10.0 0.01 0.02 0.02 89 1007.5
20260506205717 58 237 4.0 10.0 0.02 0.02 0.02 89 1007.6
20260506204039 58 237 5.0 12.0 0.02 0.02 0.02 89 1007.9
20260506200717 59 211 4.0 13.0 0.01 0.01 0.01 87 1008.0
20260506195038 61 219 4.0 12.0 0.00 0.00 0.00 82 1008.2
20260506193357 62 237 5.0 13.0 0.00 0.00 0.00 78 1008.1
20260506190038 63 218 5.0 16.0 0.00 0.00 0.00 76 1008.1
20260506184359 64 211 5.0 12.0 0.00 0.00 0.00 74 1008.3
20260506182717 64 217 5.0 13.0 0.00 0.00 0.00 72 1008.3
20260506181038 65 235 6.0 24.0 0.00 0.00 0.00 72 1008.5
20260506175357 66 232 6.0 15.0 0.00 0.00 0.00 70 1009.0
20260506173718 66 231 6.0 16.0 0.00 0.00 0.00 69 1009.2
20260506172038 67 238 6.0 19.0 0.00 0.00 0.00 69 1009.1
20260506164719 66 228 6.0 14.0 0.00 0.00 0.00 69 1009.5
20260506161358 67 242 6.0 21.0 0.00 0.00 0.00 68 1009.8
20260506155718 68 221 5.0 12.0 0.00 0.00 0.00 68 1009.9
20260506154037 67 202 5.0 11.0 0.00 0.00 0.00 69 1010.4
20260506152357 66 212 5.0 14.0 0.00 0.00 0.00 70 1010.5
20260506150717 66 220 5.0 12.0 0.00 0.00 0.00 71 1010.7
20260506141718 66 193 4.0 16.0 0.00 0.00 0.00 69 1010.3
20260506140038 67 212 4.0 12.0 0.00 0.00 0.00 69 1010.4
20260506131039 62 222 4.0 14.0 0.00 0.00 0.00 78 1010.9
20260506123718 60 201 4.0 12.0 0.00 0.00 0.00 81 1010.7
20260506122040 59 231 3.0 10.0 0.00 0.00 0.00 84 1011.1
20260506120357 59 230 4.0 11.0 0.00 0.00 0.00 83 1011.2
20260506114717 59 212 5.0 13.0 0.00 0.00 0.00 84 1011.3
20260506113039 59 224 4.0 11.0 0.00 0.00 0.00 85 1011.3
20260506111358 58 202 3.0 7.0 0.00 0.00 0.00 86 1011.3
20260506104042 57 224 3.0 11.0 0.00 0.00 0.00 87 1011.4
20260506102357 57 208 4.0 9.0 0.00 0.00 0.00 87 1011.2
20260506100719 57 212 3.0 8.0 0.00 0.00 0.00 88 1011.2
20260506093358 57 221 3.0 10.0 0.00 0.00 0.00 87 1011.0
20260506091718 57 234 3.0 7.0 0.00 0.00 0.00 87 1011.1
20260506090037 57 237 4.0 11.0 0.00 0.00 0.00 86 1011.1
20260506084358 57 239 4.0 9.0 0.00 0.00 0.00 86 1011.3
20260506082717 58 253 4.0 13.0 0.00 0.00 0.00 86 1011.1
20260506081039 58 236 4.0 17.0 0.00 0.00 0.00 85 1011.2
20260506072038 58 232 5.0 14.0 0.00 0.00 0.00 84 1011.0
20260506070358 58 238 4.0 9.0 0.00 0.00 0.00 83 1011.1